CW4713 Weather Reports


Display with metric or nautical units.
time (UTC)temp
F
wind
direction
speed
MPH
gust
MPH
rain 1hr
in
rain 24hr
in
rain mn
in
humidity
%
barometer
mb
20260831030304 55 358 1.0 2.0 0.00 0.00 0.00 73 1008.7
20260831025804 55 12 1.0 2.0 0.00 0.00 0.00 72 1008.8
20260831025306 56 25 1.0 2.0 0.00 0.00 0.00 71 1008.9
20260831024804 56 44 1.0 2.0 0.00 0.00 0.00 70 1009.0
20260831024304 56 140 0.0 1.0 0.00 0.00 0.00 69 1009.1
20260831023804 56 117 0.0 1.0 0.00 0.00 0.00 69 1009.2
20260831023304 56 172 1.0 2.0 0.00 0.00 0.00 68 1009.4
20260831022804 56 184 1.0 2.0 0.00 0.00 0.00 68 1009.5
20260831011804 57 198 3.0 5.0 0.00 0.00 0.00 65 1010.4
20260831001804 57 275 0.0 1.0 0.00 0.00 0.00 65 1010.9
20260831001304 57 258 0.0 0.0 0.00 0.00 0.00 65 1011.0
20260831000803 57 258 0.0 1.0 0.00 0.00 0.00 65 1011.1
20260831000304 58 257 1.0 2.0 0.00 0.00 0.00 64 1011.2
20260830235804 58 224 0.0 1.0 0.00 0.00 0.00 64 1011.3
20260830235306 58 278 1.0 3.0 0.00 0.00 0.00 63 1011.4
20260830234804 58 258 1.0 2.0 0.00 0.00 0.00 62 1011.6
20260830234304 58 255 0.0 3.0 0.00 0.00 0.00 61 1011.5
20260830233804 58 265 1.0 5.0 0.00 0.00 0.00 61 1011.6
20260830233304 58 263 0.0 2.0 0.00 0.00 0.00 62 1011.7
20260830232804 58 287 1.0 2.0 0.00 0.00 0.00 62 1011.7
20260830232306 58 234 3.0 6.0 0.00 0.00 0.00 62 1011.7
20260830231804 58 227 2.0 5.0 0.00 0.00 0.00 62 1011.8
20260830230804 58 202 5.0 7.0 0.00 0.00 0.00 62 1011.8
20260830230304 58 223 3.0 6.0 0.00 0.00 0.00 62 1011.8
20260830225804 58 218 4.0 7.0 0.00 0.00 0.00 62 1011.8
20260830225305 58 198 1.0 6.0 0.00 0.00 0.00 62 1011.8
20260830224804 58 204 5.0 6.0 0.00 0.00 0.00 62 1011.7
20260830224304 58 215 2.0 5.0 0.00 0.00 0.00 62 1011.8
20260830223804 58 193 1.0 2.0 0.00 0.00 0.00 63 1011.8
20260830223304 58 219 0.0 2.0 0.00 0.00 0.00 63 1011.9
20260830222804 58 242 2.0 6.0 0.00 0.00 0.00 62 1012.0
20260830222306 58 212 4.0 6.0 0.00 0.00 0.00 63 1012.0
20260830221804 58 267 2.0 6.0 0.00 0.00 0.00 63 1012.0
20260830221304 58 219 4.0 8.0 0.00 0.00 0.00 63 1012.2
20260830220804 58 188 6.0 8.0 0.00 0.00 0.00 64 1012.2
20260830210304 58 305 1.0 1.0 0.00 0.00 0.00 63 1012.3
20260830195305 56 206 2.0 5.0 0.00 0.00 0.00 66 1013.1
20260830194804 56 203 1.0 2.0 0.00 0.00 0.00 67 1013.2
20260830194304 56 228 0.0 1.0 0.00 0.00 0.00 68 1013.3
20260830193805 55 243 0.0 2.0 0.00 0.00 0.00 68 1013.4
20260830193304 55 247 0.0 2.0 0.00 0.00 0.00 69 1013.4
20260830192804 55 23 0.0 1.0 0.00 0.00 0.00 69 1013.4
20260830192305 55 187 0.0 1.0 0.00 0.00 0.00 70 1013.4
20260830191804 55 186 0.0 1.0 0.00 0.00 0.00 70 1013.4
20260830191304 54 187 2.0 3.0 0.00 0.00 0.00 71 1013.4
20260830190804 54 211 3.0 6.0 0.00 0.00 0.00 72 1013.5
20260830190304 54 171 1.0 2.0 0.00 0.00 0.00 73 1013.6
20260830185804 54 205 1.0 2.0 0.00 0.00 0.00 73 1013.8
20260830185306 53 195 2.0 2.0 0.00 0.00 0.00 73 1013.8
20260830174304 48 185 2.0 3.0 0.00 0.00 0.00 86 1014.3
20260830173804 47 142 0.0 2.0 0.00 0.00 0.00 88 1014.3
20260830173304 46 89 1.0 2.0 0.00 0.00 0.00 90 1014.3
20260830172804 46 155 0.0 0.0 0.00 0.00 0.00 90 1014.4
20260830172306 45 155 0.0 0.0 0.00 0.00 0.00 91 1014.5
20260830171804 44 155 0.0 0.0 0.00 0.00 0.00 91 1014.5
20260830171304 44 155 0.0 0.0 0.00 0.00 0.00 91 1014.5
20260830170804 43 155 0.0 0.0 0.00 0.00 0.00 91 1014.4
20260830170304 43 155 0.0 0.0 0.00 0.00 0.00 91 1014.4
20260830165804 42 155 0.0 0.0 0.00 0.00 0.00 91 1014.3
20260830165306 42 155 0.0 0.0 0.00 0.00 0.00 91 1014.3
20260830164804 42 155 0.0 0.0 0.00 0.00 0.00 91 1014.2
20260830164304 41 155 0.0 0.0 0.00 0.00 0.00 91 1014.1
20260830163804 41 155 0.0 0.0 0.00 0.00 0.00 91 1014.1
20260830163303 41 155 0.0 0.0 0.00 0.00 0.00 92 1014.1
20260830162804 40 155 0.0 0.0 0.00 0.00 0.00 92 1014.0
20260830162306 40 155 0.0 2.0 0.00 0.00 0.00 92 1014.1
20260830161804 40 171 1.0 3.0 0.00 0.00 0.00 92 1014.1
20260830161304 40 96 0.0 0.0 0.00 0.00 0.00 92 1014.0
20260830160803 39 150 1.0 1.0 0.00 0.00 0.00 92 1014.1
20260830160304 39 216 0.0 0.0 0.00 0.00 0.00 91 1014.2
20260830155804 39 216 0.0 0.0 0.00 0.00 0.00 91 1014.1
20260830155306 39 216 0.0 0.0 0.00 0.00 0.00 91 1014.2
20260830154804 39 216 0.0 0.0 0.00 0.00 0.00 91 1014.2
20260830154304 38 216 0.0 1.0 0.00 0.00 0.00 91 1014.1
20260830153304 38 151 0.0 1.0 0.00 0.00 0.00 91 1014.1
20260830152804 38 179 2.0 2.0 0.00 0.00 0.00 91 1014.1
20260830152306 39 192 0.0 0.0 0.00 0.00 0.00 91 1014.0
20260830151804 39 192 0.0 0.0 0.00 0.00 0.00 91 1014.1
20260830151304 39 192 0.0 1.0 0.00 0.00 0.00 91 1014.0
20260830150804 39 121 0.0 0.0 0.00 0.00 0.00 91 1014.0
20260830150304 39 121 0.0 0.0 0.00 0.00 0.00 91 1014.0
20260830145804 39 121 0.0 0.0 0.00 0.00 0.00 91 1013.9
20260830145306 39 121 0.0 0.0 0.00 0.00 0.00 91 1013.9
20260830144804 39 121 0.0 0.0 0.00 0.00 0.00 91 1013.9
20260830144304 39 121 0.0 0.0 0.00 0.00 0.00 90 1013.8
20260830143804 39 121 0.0 0.0 0.00 0.00 0.00 90 1013.7
20260830132804 40 176 0.0 0.0 0.00 0.00 0.00 89 1013.7
20260830122306 41 107 0.0 2.0 0.00 0.01 0.00 88 1014.0
20260830121804 40 169 1.0 2.0 0.00 0.01 0.00 88 1014.0
20260830121304 40 164 0.0 0.0 0.00 0.01 0.00 88 1013.9
20260830120804 40 164 0.0 1.0 0.00 0.01 0.00 87 1013.9
20260830120304 41 124 0.0 0.0 0.00 0.01 0.00 87 1013.9
20260830115804 41 124 0.0 2.0 0.00 0.01 0.00 87 1013.8
20260830115306 41 128 1.0 2.0 0.00 0.01 0.00 87 1013.7
20260830114804 41 119 0.0 3.0 0.00 0.01 0.00 87 1013.7
20260830114304 41 141 0.0 2.0 0.00 0.01 0.00 86 1013.6
20260830113804 41 177 0.0 2.0 0.00 0.01 0.00 86 1013.5
20260830113304 41 179 0.0 0.0 0.00 0.01 0.00 86 1013.4
20260830112804 41 179 0.0 0.0 0.00 0.01 0.00 86 1013.3
20260830112306 41 179 0.0 0.0 0.00 0.01 0.00 86 1013.3
20260830111805 42 179 0.0 0.0 0.00 0.01 0.00 86 1013.3
20260830111304 42 179 0.0 0.0 0.00 0.01 0.00 85 1013.2
20260830110804 42 179 0.0 0.0 0.00 0.01 0.00 85 1013.1
20260830110304 42 179 0.0 0.0 0.00 0.01 0.00 85 1013.1
20260830105804 43 179 0.0 0.0 0.00 0.01 0.00 85 1013.0
20260830105305 43 179 0.0 0.0 0.00 0.01 0.00 84 1013.0
20260830104804 43 179 0.0 0.0 0.00 0.01 0.00 84 1012.9
20260830104304 43 179 0.0 0.0 0.00 0.01 0.00 84 1012.9
20260830103804 43 179 0.0 0.0 0.00 0.01 0.00 84 1013.0
20260830103304 43 179 0.0 0.0 0.00 0.01 0.00 84 1013.0
20260830102804 43 179 0.0 1.0 0.00 0.01 0.00 84 1013.0
20260830102306 43 168 0.0 1.0 0.00 0.01 0.00 83 1013.0
20260830101803 44 185 1.0 1.0 0.00 0.01 0.00 83 1012.9
20260830101304 44 150 1.0 2.0 0.00 0.01 0.00 83 1012.9
20260830100804 44 107 0.0 0.0 0.00 0.01 0.00 83 1012.9
20260830100304 44 107 0.0 0.0 0.00 0.02 0.00 82 1012.8
20260830095804 44 107 0.0 0.0 0.00 0.02 0.00 82 1012.8
20260830095306 44 86 0.0 1.0 0.00 0.02 0.00 82 1012.8
20260830094804 45 182 2.0 2.0 0.00 0.02 0.00 81 1012.7
20260830094304 45 186 1.0 2.0 0.00 0.02 0.00 81 1012.7
20260830093804 45 294 0.0 2.0 0.00 0.02 0.00 80 1012.7
20260830093304 46 308 0.0 0.0 0.00 0.02 0.00 80 1012.7
20260830092804 46 308 0.0 0.0 0.00 0.02 0.00 79 1012.6
20260830092306 46 308 1.0 2.0 0.00 0.02 0.00 78 1012.6
20260830091804 47 296 0.0 1.0 0.00 0.02 0.00 78 1012.6
20260830091304 47 335 1.0 1.0 0.00 0.02 0.00 77 1012.6
20260830090804 48 271 0.0 0.0 0.00 0.02 0.00 76 1012.5
20260830080305 54 18 3.0 7.0 0.00 0.02 0.00 70 1012.1
20260830075805 53 36 4.0 7.0 0.00 0.02 0.02 71 1012.0
20260830075306 53 55 4.0 7.0 0.00 0.02 0.02 72 1012.0
20260830074805 53 31 3.0 6.0 0.00 0.02 0.02 74 1012.0
20260830074304 52 40 3.0 7.0 0.00 0.02 0.02 76 1012.0
20260830073805 51 20 5.0 9.0 0.00 0.02 0.02 80 1011.9
20260830073305 50 37 2.0 5.0 0.00 0.02 0.02 81 1011.9
20260830072804 50 59 1.0 3.0 0.00 0.02 0.02 81 1011.9
20260830072306 50 48 1.0 5.0 0.00 0.02 0.02 81 1011.8
20260830071804 50 42 2.0 5.0 0.00 0.02 0.02 82 1011.8
20260830071304 50 7 1.0 5.0 0.00 0.02 0.02 82 1011.7
20260830070804 51 125 1.0 2.0 0.00 0.02 0.02 81 1011.6
20260830070304 51 144 0.0 2.0 0.00 0.02 0.02 81 1011.5
20260830065804 51 185 0.0 2.0 0.00 0.02 0.02 80 1011.5
20260830065306 52 147 0.0 2.0 0.00 0.02 0.02 80 1011.4
20260830064804 52 149 0.0 1.0 0.00 0.02 0.02 79 1011.4
20260830064303 52 148 0.0 0.0 0.00 0.02 0.02 79 1011.4
20260830063804 52 148 1.0 1.0 0.00 0.02 0.02 79 1011.3
20260830063304 52 75 0.0 1.0 0.00 0.02 0.02 78 1011.3
20260830062804 53 148 0.0 1.0 0.00 0.02 0.02 78 1011.2
20260830062306 53 153 2.0 2.0 0.00 0.02 0.02 78 1011.2
20260830061805 53 159 2.0 6.0 0.00 0.02 0.02 77 1011.2
20260830061305 54 140 2.0 5.0 0.00 0.02 0.02 77 1011.2
20260830060804 54 182 2.0 3.0 0.00 0.02 0.02 76 1011.1
20260830060304 54 1 0.0 2.0 0.00 0.02 0.02 75 1011.1
20260830055804 54 288 0.0 0.0 0.00 0.02 0.02 75 1011.0
20260830055306 55 288 0.0 2.0 0.00 0.02 0.02 74 1011.0
20260830054804 55 152 0.0 0.0 0.00 0.02 0.02 73 1010.9
20260830054304 55 152 0.0 0.0 0.00 0.02 0.02 72 1010.8
20260830053804 56 152 0.0 1.0 0.00 0.02 0.02 72 1010.7
20260830053304 56 175 0.0 1.0 0.00 0.02 0.02 71 1010.6
20260830052804 57 119 0.0 0.0 0.00 0.02 0.02 70 1010.6
20260830052306 57 141 1.0 1.0 0.00 0.02 0.02 70 1010.5
20260830051804 58 125 0.0 1.0 0.00 0.02 0.02 69 1010.5
20260830051304 58 117 0.0 0.0 0.00 0.02 0.02 68 1010.4
20260830050804 59 117 0.0 0.0 0.00 0.02 0.02 67 1010.4
20260830050304 59 117 0.0 0.0 0.00 0.02 0.02 66 1010.4
20260830045804 59 108 0.0 1.0 0.00 0.02 0.02 65 1010.3
20260830045306 60 110 0.0 1.0 0.00 0.02 0.02 65 1010.3
20260830044803 60 45 0.0 0.0 0.00 0.02 0.02 64 1010.3
20260830044304 60 45 0.0 0.0 0.00 0.02 0.02 63 1010.2
20260830043804 61 45 0.0 0.0 0.00 0.02 0.02 63 1010.2
20260830043304 61 45 0.0 1.0 0.00 0.02 0.02 62 1010.2
20260830042804 61 37 0.0 0.0 0.00 0.02 0.02 62 1010.2
20260830042306 61 37 0.0 1.0 0.00 0.02 0.02 61 1010.2
20260830041805 61 34 0.0 1.0 0.00 0.02 0.02 61 1010.2
20260830041304 61 37 1.0 1.0 0.00 0.02 0.02 60 1010.1
20260830040804 61 0 1.0 2.0 0.00 0.02 0.02 60 1010.1
20260830040304 61 17 1.0 2.0 0.00 0.02 0.02 60 1010.1
20260830035804 61 148 1.0 3.0 0.00 0.02 0.02 59 1010.0
20260830035306 61 350 1.0 5.0 0.00 0.02 0.02 59 1010.0
20260830034804 61 352 2.0 5.0 0.00 0.02 0.02 59 1010.0
20260830034304 62 329 2.0 5.0 0.00 0.02 0.02 58 1009.9
20260830033804 62 49 3.0 6.0 0.00 0.02 0.02 58 1009.9
20260830033304 62 9 4.0 7.0 0.00 0.02 0.02 58 1009.9
20260830032804 62 5 3.0 6.0 0.00 0.02 0.02 58 1009.8
20260830032306 62 42 5.0 7.0 0.00 0.02 0.02 58 1009.7
20260830031804 62 352 2.0 3.0 0.00 0.02 0.02 58 1009.7
20260830031304 62 334 3.0 7.0 0.00 0.02 0.02 58 1009.7
20260830030804 62 3 3.0 6.0 0.00 0.02 0.02 57 1009.7